Time,TemperatureF,DewpointF,PressureIn,WindDirection,WindDirectionDegrees,WindSpeedMPH,WindSpeedGustMPH,Humidity,HourlyPrecipIn,Conditions,Clouds,dailyrainin,SoftwareType,DateUTC
2013-11-27 00:01:00,33.9,32.6,29.77,South,191,1.0,2.0,95,0.00,,,0.01,Wunderground v.1.15,2013-11-27 05:01:00,
2013-11-27 00:03:00,33.9,32.6,29.77,South,191,1.0,2.0,95,0.00,,,0.01,Wunderground v.1.15,2013-11-27 05:03:00,
2013-11-27 00:06:00,33.8,32.5,29.77,South,191,0.0,2.0,95,0.00,,,0.01,Wunderground v.1.15,2013-11-27 05:06:00,
2013-11-27 00:11:00,33.8,32.5,29.77,SE,144,0.0,1.0,95,0.00,,,0.00,Wunderground v.1.15,2013-11-27 05:11:00,
2013-11-27 00:16:00,33.7,32.4,29.77,NE,56,0.0,1.0,95,0.00,,,0.00,Wunderground v.1.15,2013-11-27 05:16:00,
2013-11-27 00:20:00,33.7,32.4,29.77,ENE,68,0.0,1.0,95,0.00,,,0.00,Wunderground v.1.15,2013-11-27 05:20:00,
2013-11-27 00:25:00,33.6,32.3,29.76,ESE,105,0.0,3.0,95,0.00,,,0.00,Wunderground v.1.15,2013-11-27 05:25:00,
2013-11-27 00:30:00,33.6,32.3,29.77,SE,132,0.0,0.0,95,0.00,,,0.00,Wunderground v.1.15,2013-11-27 05:30:00,
2013-11-27 00:36:00,33.6,32.3,29.76,SE,132,0.0,0.0,95,0.00,,,0.00,Wunderground v.1.15,2013-11-27 05:36:00,
2013-11-27 00:41:00,33.5,32.2,29.76,SSE,165,0.0,0.0,95,0.00,,,0.00,Wunderground v.1.15,2013-11-27 05:41:00,
2013-11-27 00:47:00,33.5,32.2,29.76,ENE,60,0.0,3.0,95,0.00,,,0.00,Wunderground v.1.15,2013-11-27 05:47:00,
2013-11-27 00:53:00,33.4,32.1,29.75,SSW,202,1.0,2.0,95,0.00,,,0.00,Wunderground v.1.15,2013-11-27 05:53:00,
2013-11-27 00:58:00,33.4,32.1,29.75,East,90,1.0,2.0,95,0.00,,,0.00,Wunderground v.1.15,2013-11-27 05:58:00,
2013-11-27 01:03:00,33.4,32.1,29.75,SSW,192,0.0,1.0,95,0.00,,,0.00,Wunderground v.1.15,2013-11-27 06:03:00,
2013-11-27 01:09:00,33.3,32.0,29.75,NE,51,0.0,1.0,95,0.00,,,0.00,Wunderground v.1.15,2013-11-27 06:09:00,
2013-11-27 01:14:00,33.3,32.0,29.75,ESE,103,0.0,1.0,95,0.00,,,0.00,Wunderground v.1.15,2013-11-27 06:14:00,
2013-11-27 01:19:00,33.3,32.0,29.76,SE,144,0.0,2.0,95,0.00,,,0.00,Wunderground v.1.15,2013-11-27 06:19:00,
2013-11-27 01:24:00,33.2,31.9,29.76,East,96,1.0,1.0,95,0.00,,,0.00,Wunderground v.1.15,2013-11-27 06:24:00,
2013-11-27 01:29:00,33.2,31.9,29.75,South,173,1.0,2.0,95,0.00,,,0.00,Wunderground v.1.15,2013-11-27 06:29:00,
2013-11-27 01:35:00,33.1,31.8,29.75,SE,144,0.0,1.0,95,0.00,,,0.00,Wunderground v.1.15,2013-11-27 06:35:00,
2013-11-27 01:40:00,33.1,31.6,29.75,East,92,1.0,1.0,94,0.00,,,0.00,Wunderground v.1.15,2013-11-27 06:40:00,
2013-11-27 01:45:00,33.1,31.6,29.75,ESE,122,1.0,1.0,94,0.00,,,0.00,Wunderground v.1.15,2013-11-27 06:45:00,
2013-11-27 01:51:00,33.0,31.5,29.76,NNE,19,1.0,1.0,94,0.00,,,0.00,Wunderground v.1.15,2013-11-27 06:51:00,
2013-11-27 01:56:00,33.0,31.5,29.76,ESE,115,1.0,2.0,94,0.00,,,0.00,Wunderground v.1.15,2013-11-27 06:56:00,
2013-11-27 02:02:00,33.0,31.5,29.77,East,92,1.0,2.0,94,0.00,,,0.00,Wunderground v.1.15,2013-11-27 07:02:00,
2013-11-27 02:07:00,33.0,31.5,29.77,West,278,1.0,2.0,94,0.00,,,0.00,Wunderground v.1.15,2013-11-27 07:07:00,
2013-11-27 02:12:00,33.0,31.5,29.76,NE,48,1.0,1.0,94,0.00,,,0.00,Wunderground v.1.15,2013-11-27 07:12:00,
2013-11-27 02:17:00,32.9,31.4,29.75,SE,141,1.0,2.0,94,0.00,,,0.00,Wunderground v.1.15,2013-11-27 07:17:00,
2013-11-27 02:23:00,32.9,31.4,29.76,SE,136,1.0,3.0,94,0.00,,,0.00,Wunderground v.1.15,2013-11-27 07:23:00,
2013-11-27 02:28:00,32.9,31.4,29.75,NE,50,1.0,3.0,94,0.00,,,0.00,Wunderground v.1.15,2013-11-27 07:28:00,
2013-11-27 02:33:00,32.9,31.4,29.75,WNW,298,0.0,2.0,94,0.00,,,0.00,Wunderground v.1.15,2013-11-27 07:33:00,
2013-11-27 02:38:00,32.8,31.3,29.75,SW,229,0.0,2.0,94,0.00,,,0.00,Wunderground v.1.15,2013-11-27 07:38:00,
2013-11-27 02:43:00,32.8,31.0,29.75,SE,135,1.0,5.0,93,0.00,,,0.00,Wunderground v.1.15,2013-11-27 07:43:00,
2013-11-27 02:48:00,32.8,31.0,29.75,ENE,58,1.0,5.0,93,0.00,,,0.00,Wunderground v.1.15,2013-11-27 07:48:00,
2013-11-27 02:54:00,32.8,31.0,29.75,SE,128,1.0,2.0,93,0.00,,,0.00,Wunderground v.1.15,2013-11-27 07:54:00,
2013-11-27 02:59:00,32.8,31.0,29.76,SSW,209,1.0,2.0,93,0.00,,,0.00,Wunderground v.1.15,2013-11-27 07:59:00,
2013-11-27 03:04:00,32.8,31.0,29.77,North,5,1.0,2.0,93,0.00,,,0.00,Wunderground v.1.15,2013-11-27 08:04:00,
2013-11-27 03:10:00,32.8,31.0,29.77,NE,55,1.0,1.0,93,0.00,,,0.00,Wunderground v.1.15,2013-11-27 08:10:00,
2013-11-27 03:15:00,32.8,31.0,29.77,East,94,0.0,2.0,93,0.00,,,0.00,Wunderground v.1.15,2013-11-27 08:15:00,
2013-11-27 03:20:00,32.8,31.0,29.77,East,84,0.0,1.0,93,0.00,,,0.00,Wunderground v.1.15,2013-11-27 08:20:00,
2013-11-27 03:26:00,32.7,30.9,29.76,SE,127,0.0,1.0,93,0.00,,,0.00,Wunderground v.1.15,2013-11-27 08:26:00,
2013-11-27 03:32:00,32.7,30.9,29.76,NNE,28,0.0,0.0,93,0.00,,,0.00,Wunderground v.1.15,2013-11-27 08:32:00,
2013-11-27 03:38:00,32.6,30.8,29.76,NNE,32,0.0,2.0,93,0.00,,,0.00,Wunderground v.1.15,2013-11-27 08:38:00,
2013-11-27 03:43:00,32.6,30.8,29.76,ENE,59,1.0,1.0,93,0.00,,,0.00,Wunderground v.1.15,2013-11-27 08:43:00,
2013-11-27 03:48:00,32.6,31.1,29.77,ENE,61,0.0,1.0,94,0.00,,,0.00,Wunderground v.1.15,2013-11-27 08:48:00,
2013-11-27 03:54:00,32.6,31.1,29.77,ESE,123,0.0,1.0,94,0.00,,,0.00,Wunderground v.1.15,2013-11-27 08:54:00,
2013-11-27 03:59:00,32.6,31.1,29.77,ESE,123,0.0,1.0,94,0.00,,,0.00,Wunderground v.1.15,2013-11-27 08:59:00,
2013-11-27 04:04:00,32.6,31.1,29.76,SE,134,0.0,1.0,94,0.00,,,0.00,Wunderground v.1.15,2013-11-27 09:04:00,
2013-11-27 04:09:00,32.5,31.0,29.76,NE,34,0.0,1.0,94,0.00,,,0.00,Wunderground v.1.15,2013-11-27 09:09:00,
2013-11-27 04:15:00,32.5,31.0,29.75,SE,143,0.0,1.0,94,0.00,,,0.00,Wunderground v.1.15,2013-11-27 09:15:00,
2013-11-27 04:20:00,32.5,31.0,29.76,NE,35,1.0,1.0,94,0.00,,,0.00,Wunderground v.1.15,2013-11-27 09:20:00,
2013-11-27 04:25:00,32.5,31.0,29.75,SSW,199,0.0,1.0,94,0.00,,,0.00,Wunderground v.1.15,2013-11-27 09:25:00,
2013-11-27 04:31:00,32.5,31.0,29.75,SSW,202,0.0,1.0,94,0.00,,,0.00,Wunderground v.1.15,2013-11-27 09:31:00,
2013-11-27 04:37:00,32.5,31.0,29.75,SSW,201,0.0,1.0,94,0.00,,,0.00,Wunderground v.1.15,2013-11-27 09:37:00,
2013-11-27 04:42:00,32.5,31.0,29.76,ENE,64,0.0,1.0,94,0.00,,,0.00,Wunderground v.1.15,2013-11-27 09:42:00,
2013-11-27 04:47:00,32.5,31.0,29.77,South,188,0.0,1.0,94,0.00,,,0.00,Wunderground v.1.15,2013-11-27 09:47:00,
2013-11-27 04:52:00,32.5,31.0,29.76,ENE,63,0.0,0.0,94,0.00,,,0.00,Wunderground v.1.15,2013-11-27 09:52:00,
2013-11-27 04:57:00,32.5,31.0,29.77,SSE,165,0.0,1.0,94,0.00,,,0.00,Wunderground v.1.15,2013-11-27 09:57:00,
2013-11-27 05:03:00,32.5,31.0,29.77,SSE,165,0.0,0.0,94,0.00,,,0.00,Wunderground v.1.15,2013-11-27 10:03:00,
2013-11-27 05:08:00,32.5,31.0,29.77,SE,136,0.0,1.0,94,0.00,,,0.00,Wunderground v.1.15,2013-11-27 10:08:00,
2013-11-27 05:13:00,32.4,30.9,29.77,NW,314,0.0,2.0,94,0.00,,,0.00,Wunderground v.1.15,2013-11-27 10:13:00,
2013-11-27 05:19:00,32.4,30.9,29.77,NNW,327,0.0,2.0,94,0.00,,,0.00,Wunderground v.1.15,2013-11-27 10:19:00,
2013-11-27 05:24:00,32.4,30.9,29.78,SE,137,0.0,1.0,94,0.00,,,0.00,Wunderground v.1.15,2013-11-27 10:24:00,
2013-11-27 05:29:00,32.5,30.7,29.78,SE,137,0.0,1.0,93,0.00,,,0.00,Wunderground v.1.15,2013-11-27 10:29:00,
2013-11-27 05:34:00,32.5,31.0,29.78,SE,137,0.0,0.0,94,0.00,,,0.00,Wunderground v.1.15,2013-11-27 10:34:00,
2013-11-27 05:39:00,32.5,31.0,29.78,ESE,123,0.0,0.0,94,0.00,,,0.00,Wunderground v.1.15,2013-11-27 10:39:00,
2013-11-27 05:45:00,32.5,30.7,29.78,South,189,0.0,1.0,93,0.00,,,0.00,Wunderground v.1.15,2013-11-27 10:45:00,
2013-11-27 05:50:00,32.5,30.7,29.78,SE,136,0.0,0.0,93,0.00,,,0.00,Wunderground v.1.15,2013-11-27 10:50:00,
2013-11-27 05:55:00,32.5,30.7,29.78,South,190,0.0,0.0,93,0.00,,,0.00,Wunderground v.1.15,2013-11-27 10:55:00,
2013-11-27 06:00:00,32.5,30.7,29.78,South,191,0.0,0.0,93,0.00,,,0.00,Wunderground v.1.15,2013-11-27 11:00:00,
2013-11-27 06:06:00,32.5,30.7,29.78,SE,128,0.0,2.0,93,0.00,,,0.00,Wunderground v.1.15,2013-11-27 11:06:00,
2013-11-27 06:11:00,32.5,30.7,29.78,SSE,153,0.0,0.0,93,0.00,,,0.00,Wunderground v.1.15,2013-11-27 11:11:00,
2013-11-27 06:16:00,32.5,30.7,29.79,ESE,117,0.0,0.0,93,0.00,,,0.00,Wunderground v.1.15,2013-11-27 11:16:00,
2013-11-27 06:21:00,32.4,30.6,29.79,ESE,117,0.0,0.0,93,0.00,,,0.00,Wunderground v.1.15,2013-11-27 11:21:00,
2013-11-27 06:26:00,32.4,30.6,29.78,SE,144,0.0,1.0,93,0.00,,,0.00,Wunderground v.1.15,2013-11-27 11:26:00,
2013-11-27 06:31:00,32.4,30.6,29.79,SE,144,0.0,0.0,93,0.00,,,0.00,Wunderground v.1.15,2013-11-27 11:31:00,
2013-11-27 06:37:00,32.4,30.6,29.79,SE,144,0.0,0.0,93,0.00,,,0.00,Wunderground v.1.15,2013-11-27 11:37:00,
2013-11-27 06:42:00,32.4,30.6,29.79,East,99,0.0,1.0,93,0.00,,,0.00,Wunderground v.1.15,2013-11-27 11:42:00,
2013-11-27 06:47:00,32.4,30.6,29.79,South,176,0.0,1.0,93,0.00,,,0.00,Wunderground v.1.15,2013-11-27 11:47:00,
2013-11-27 06:53:00,32.4,30.6,29.79,SE,140,0.0,1.0,93,0.00,,,0.00,Wunderground v.1.15,2013-11-27 11:53:00,
2013-11-27 06:58:00,32.4,30.6,29.79,ESE,123,0.0,2.0,93,0.00,,,0.00,Wunderground v.1.15,2013-11-27 11:58:00,
2013-11-27 07:03:00,32.3,30.5,29.79,ESE,119,0.0,0.0,93,0.00,,,0.00,Wunderground v.1.15,2013-11-27 12:03:00,
2013-11-27 07:08:00,32.3,30.5,29.79,ESE,122,0.0,0.0,93,0.00,,,0.00,Wunderground v.1.15,2013-11-27 12:08:00,
2013-11-27 07:13:00,32.3,30.5,29.79,ESE,122,0.0,0.0,93,0.00,,,0.00,Wunderground v.1.15,2013-11-27 12:13:00,
2013-11-27 07:18:00,32.3,30.5,29.79,ESE,122,0.0,0.0,93,0.00,,,0.00,Wunderground v.1.15,2013-11-27 12:18:00,
2013-11-27 07:24:00,32.3,30.5,29.79,ESE,122,0.0,0.0,93,0.00,,,0.00,Wunderground v.1.15,2013-11-27 12:24:00,
2013-11-27 07:29:00,32.2,30.4,29.80,ESE,122,0.0,0.0,93,0.00,,,0.00,Wunderground v.1.15,2013-11-27 12:29:00,
2013-11-27 07:34:00,32.3,30.8,29.80,ESE,122,0.0,0.0,94,0.00,,,0.00,Wunderground v.1.15,2013-11-27 12:34:00,
2013-11-27 07:39:00,32.3,30.8,29.80,South,172,0.0,0.0,94,0.00,,,0.00,Wunderground v.1.15,2013-11-27 12:39:00,
2013-11-27 07:45:00,32.3,30.8,29.80,SSE,156,0.0,0.0,94,0.00,,,0.00,Wunderground v.1.15,2013-11-27 12:45:00,
2013-11-27 07:50:00,32.3,30.8,29.80,SE,132,0.0,0.0,94,0.00,,,0.00,Wunderground v.1.15,2013-11-27 12:50:00,
2013-11-27 07:55:00,32.4,30.9,29.80,East,88,0.0,2.0,94,0.00,,,0.00,Wunderground v.1.15,2013-11-27 12:55:00,
2013-11-27 08:01:00,32.4,30.9,29.80,ENE,65,0.0,0.0,94,0.00,,,0.00,Wunderground v.1.15,2013-11-27 13:01:00,
2013-11-27 08:06:00,32.4,30.9,29.81,ENE,65,0.0,0.0,94,0.00,,,0.00,Wunderground v.1.15,2013-11-27 13:06:00,
2013-11-27 08:11:00,32.5,31.0,29.81,SE,130,0.0,0.0,94,0.00,,,0.00,Wunderground v.1.15,2013-11-27 13:11:00,
2013-11-27 08:16:00,32.5,31.0,29.81,SE,130,0.0,1.0,94,0.00,,,0.00,Wunderground v.1.15,2013-11-27 13:16:00,
2013-11-27 08:22:00,32.6,31.1,29.80,SE,130,0.0,0.0,94,0.00,,,0.00,Wunderground v.1.15,2013-11-27 13:22:00,
2013-11-27 08:27:00,32.6,31.1,29.80,WSW,253,0.0,2.0,94,0.00,,,0.00,Wunderground v.1.15,2013-11-27 13:27:00,
2013-11-27 08:32:00,32.6,31.1,29.81,SSE,154,0.0,0.0,94,0.00,,,0.00,Wunderground v.1.15,2013-11-27 13:32:00,
2013-11-27 08:37:00,32.6,31.1,29.81,SSE,154,0.0,0.0,94,0.00,,,0.00,Wunderground v.1.15,2013-11-27 13:37:00,
2013-11-27 08:42:00,32.6,31.1,29.81,SSE,154,0.0,0.0,94,0.00,,,0.00,Wunderground v.1.15,2013-11-27 13:42:00,
2013-11-27 08:48:00,32.7,31.2,29.81,SW,219,0.0,2.0,94,0.00,,,0.00,Wunderground v.1.15,2013-11-27 13:48:00,
2013-11-27 08:53:00,32.7,31.2,29.80,SSE,157,0.0,1.0,94,0.00,,,0.00,Wunderground v.1.15,2013-11-27 13:53:00,
2013-11-27 08:58:00,32.8,31.0,29.80,SW,223,0.0,1.0,93,0.00,,,0.00,Wunderground v.1.15,2013-11-27 13:58:00,
2013-11-27 09:03:00,32.8,31.0,29.80,South,181,0.0,0.0,93,0.00,,,0.00,Wunderground v.1.15,2013-11-27 14:03:00,
2013-11-27 09:08:00,32.8,31.0,29.81,SE,128,0.0,1.0,93,0.00,,,0.00,Wunderground v.1.15,2013-11-27 14:08:00,
2013-11-27 09:14:00,32.9,31.1,29.81,SSE,159,0.0,1.0,93,0.00,,,0.00,Wunderground v.1.15,2013-11-27 14:14:00,
2013-11-27 09:19:00,32.9,31.1,29.81,SSE,159,0.0,1.0,93,0.00,,,0.00,Wunderground v.1.15,2013-11-27 14:19:00,
2013-11-27 09:24:00,33.0,31.2,29.81,SSE,159,0.0,1.0,93,0.00,,,0.00,Wunderground v.1.15,2013-11-27 14:24:00,
2013-11-27 09:30:00,33.1,31.3,29.81,SSE,150,0.0,0.0,93,0.00,,,0.00,Wunderground v.1.15,2013-11-27 14:30:00,
2013-11-27 09:35:00,33.1,31.0,29.81,SSW,193,0.0,4.0,92,0.00,,,0.00,Wunderground v.1.15,2013-11-27 14:35:00,
2013-11-27 09:40:00,33.1,31.3,29.82,SSE,165,1.0,1.0,93,0.00,,,0.00,Wunderground v.1.15,2013-11-27 14:40:00,
2013-11-27 09:45:00,33.0,30.9,29.82,South,179,1.0,4.0,92,0.00,,,0.00,Wunderground v.1.15,2013-11-27 14:45:00,
2013-11-27 09:51:00,33.1,31.0,29.82,South,179,0.0,1.0,92,0.00,,,0.00,Wunderground v.1.15,2013-11-27 14:51:00,
2013-11-27 09:57:00,33.2,31.1,29.81,SE,139,0.0,2.0,92,0.00,,,0.00,Wunderground v.1.15,2013-11-27 14:57:00,
2013-11-27 10:02:00,33.2,31.1,29.81,SE,124,0.0,0.0,92,0.00,,,0.00,Wunderground v.1.15,2013-11-27 15:02:00,
2013-11-27 10:07:00,33.2,30.9,29.81,ESE,111,1.0,3.0,91,0.00,,,0.00,Wunderground v.1.15,2013-11-27 15:07:00,
2013-11-27 10:12:00,33.2,30.9,29.80,ENE,78,1.0,1.0,91,0.00,,,0.00,Wunderground v.1.15,2013-11-27 15:12:00,
2013-11-27 10:17:00,33.2,30.9,29.81,ENE,62,1.0,2.0,91,0.00,,,0.00,Wunderground v.1.15,2013-11-27 15:17:00,
2013-11-27 10:22:00,33.2,31.1,29.82,NE,43,1.0,1.0,92,0.00,,,0.00,Wunderground v.1.15,2013-11-27 15:22:00,
2013-11-27 10:28:00,33.1,31.0,29.82,WNW,286,1.0,4.0,92,0.00,,,0.00,Wunderground v.1.15,2013-11-27 15:28:00,
2013-11-27 10:33:00,33.1,31.0,29.82,ESE,123,1.0,2.0,92,0.00,,,0.00,Wunderground v.1.15,2013-11-27 15:33:00,
2013-11-27 10:38:00,33.1,30.8,29.82,SSW,207,1.0,2.0,91,0.00,,,0.00,Wunderground v.1.15,2013-11-27 15:38:00,
2013-11-27 10:44:00,33.1,30.8,29.81,ESE,112,1.0,2.0,91,0.00,,,0.00,Wunderground v.1.15,2013-11-27 15:44:00,
2013-11-27 10:49:00,33.1,30.8,29.81,ESE,107,1.0,2.0,91,0.00,,,0.00,Wunderground v.1.15,2013-11-27 15:49:00,
2013-11-27 10:54:00,33.2,30.9,29.81,SSE,149,1.0,1.0,91,0.00,,,0.00,Wunderground v.1.15,2013-11-27 15:54:00,
2013-11-27 10:59:00,33.2,30.9,29.80,SE,132,1.0,4.0,91,0.00,,,0.00,Wunderground v.1.15,2013-11-27 15:59:00,
2013-11-27 11:05:00,33.1,30.5,29.80,SSE,151,1.0,10.0,90,0.00,,,0.00,Wunderground v.1.15,2013-11-27 16:05:00,
2013-11-27 11:10:00,33.1,30.5,29.80,ESE,115,1.0,3.0,90,0.00,,,0.00,Wunderground v.1.15,2013-11-27 16:10:00,
2013-11-27 11:15:00,33.0,30.1,29.79,South,180,2.0,3.0,89,0.00,,,0.00,Wunderground v.1.15,2013-11-27 16:15:00,
2013-11-27 11:21:00,32.9,30.0,29.78,SW,233,2.0,3.0,89,0.00,,,0.00,Wunderground v.1.15,2013-11-27 16:21:00,
2013-11-27 11:27:00,32.8,29.9,29.78,ESE,118,2.0,3.0,89,0.00,,,0.00,Wunderground v.1.15,2013-11-27 16:27:00,
2013-11-27 11:32:00,32.7,29.8,29.78,ESE,109,2.0,5.0,89,0.00,,,0.00,Wunderground v.1.15,2013-11-27 16:32:00,
2013-11-27 11:37:00,32.7,29.8,29.78,SSE,151,2.0,5.0,89,0.00,,,0.00,Wunderground v.1.15,2013-11-27 16:37:00,
2013-11-27 11:42:00,32.6,29.7,29.78,ENE,68,1.0,3.0,89,0.00,,,0.00,Wunderground v.1.15,2013-11-27 16:42:00,
2013-11-27 11:47:00,32.6,29.7,29.77,SSE,147,1.0,3.0,89,0.00,,,0.00,Wunderground v.1.15,2013-11-27 16:47:00,
2013-11-27 11:53:00,32.6,29.4,29.77,SSW,198,1.0,2.0,88,0.00,,,0.00,Wunderground v.1.15,2013-11-27 16:53:00,
2013-11-27 11:58:00,32.6,29.2,29.77,NE,34,2.0,5.0,87,0.00,,,0.00,Wunderground v.1.15,2013-11-27 16:58:00,
2013-11-27 12:03:00,32.5,28.8,29.77,East,85,2.0,2.0,86,0.00,,,0.00,Wunderground v.1.15,2013-11-27 17:03:00,
2013-11-27 12:09:00,32.5,28.5,29.77,ENE,73,2.0,3.0,85,0.00,,,0.00,Wunderground v.1.15,2013-11-27 17:09:00,
2013-11-27 12:15:00,32.5,28.5,29.77,East,79,1.0,2.0,85,0.00,,,0.00,Wunderground v.1.15,2013-11-27 17:15:00,
2013-11-27 12:20:00,32.6,28.6,29.77,WSW,246,1.0,3.0,85,0.00,,,0.00,Wunderground v.1.15,2013-11-27 17:20:00,
2013-11-27 12:25:00,32.5,27.9,29.77,SW,236,2.0,8.0,83,0.00,,,0.00,Wunderground v.1.15,2013-11-27 17:25:00,
2013-11-27 12:30:00,32.5,28.2,29.77,NE,39,2.0,2.0,84,0.00,,,0.00,Wunderground v.1.15,2013-11-27 17:30:00,
2013-11-27 12:36:00,32.6,28.3,29.77,NE,37,2.0,2.0,84,0.00,,,0.00,Wunderground v.1.15,2013-11-27 17:36:00,
2013-11-27 12:42:00,32.7,28.4,29.77,ENE,61,2.0,3.0,84,0.00,,,0.00,Wunderground v.1.15,2013-11-27 17:42:00,
2013-11-27 12:47:00,32.7,28.4,29.77,WSW,246,2.0,4.0,84,0.00,,,0.00,Wunderground v.1.15,2013-11-27 17:47:00,
2013-11-27 12:52:00,32.6,28.9,29.78,SSE,167,1.0,6.0,86,0.00,,,0.00,Wunderground v.1.15,2013-11-27 17:52:00,
2013-11-27 12:57:00,32.2,29.0,29.78,SW,216,1.0,6.0,88,0.00,,,0.00,Wunderground v.1.15,2013-11-27 17:57:00,
2013-11-27 13:03:00,31.8,28.7,29.79,SSW,194,2.0,3.0,88,0.00,,,0.00,Wunderground v.1.15,2013-11-27 18:03:00,
2013-11-27 13:08:00,31.6,28.5,29.78,SSW,198,2.0,3.0,88,0.00,,,0.00,Wunderground v.1.15,2013-11-27 18:08:00,
2013-11-27 13:13:00,31.4,28.3,29.79,South,189,2.0,2.0,88,0.00,,,0.00,Wunderground v.1.15,2013-11-27 18:13:00,
2013-11-27 13:18:00,31.2,28.3,29.80,SSE,148,1.0,2.0,89,0.00,,,0.00,Wunderground v.1.15,2013-11-27 18:18:00,
2013-11-27 13:24:00,31.0,28.1,29.81,SSE,167,1.0,2.0,89,0.00,,,0.00,Wunderground v.1.15,2013-11-27 18:24:00,
2013-11-27 13:29:00,30.8,27.7,29.80,ESE,117,1.0,2.0,88,0.00,,,0.00,Wunderground v.1.15,2013-11-27 18:29:00,
2013-11-27 13:34:00,30.6,27.2,29.81,SSE,150,1.0,3.0,87,0.00,,,0.00,Wunderground v.1.15,2013-11-27 18:34:00,
2013-11-27 13:39:00,30.5,26.8,29.81,SE,146,1.0,4.0,86,0.00,,,0.00,Wunderground v.1.15,2013-11-27 18:39:00,
2013-11-27 13:45:00,30.4,26.4,29.82,WSW,252,1.0,2.0,85,0.00,,,0.00,Wunderground v.1.15,2013-11-27 18:45:00,
2013-11-27 13:50:00,30.2,26.2,29.82,NE,53,1.0,1.0,85,0.00,,,0.00,Wunderground v.1.15,2013-11-27 18:50:00,
2013-11-27 13:55:00,29.9,25.9,29.82,SE,142,2.0,4.0,85,0.00,,,0.00,Wunderground v.1.15,2013-11-27 18:55:00,
2013-11-27 14:00:00,29.6,25.6,29.83,SE,135,2.0,2.0,85,0.00,,,0.00,Wunderground v.1.15,2013-11-27 19:00:00,
2013-11-27 14:01:00,29.6,25.6,29.83,South,184,2.0,2.0,85,0.00,,,0.00,Wunderground v.1.15,2013-11-27 19:01:00,
2013-11-27 14:06:00,29.5,25.8,29.83,NNE,30,2.0,4.0,86,0.00,,,0.00,Wunderground v.1.15,2013-11-27 19:06:00,
2013-11-27 14:12:00,29.4,25.4,29.84,East,87,2.0,5.0,85,0.00,,,0.00,Wunderground v.1.15,2013-11-27 19:12:00,
2013-11-27 14:17:00,29.1,24.9,29.84,SW,223,2.0,5.0,84,0.00,,,0.00,Wunderground v.1.15,2013-11-27 19:17:00,
2013-11-27 14:22:00,28.8,24.6,29.84,South,190,2.0,4.0,84,0.00,,,0.00,Wunderground v.1.15,2013-11-27 19:22:00,
2013-11-27 14:28:00,28.5,23.7,29.85,NE,52,2.0,5.0,82,0.00,,,0.00,Wunderground v.1.15,2013-11-27 19:28:00,
2013-11-27 14:33:00,28.4,23.3,29.85,WSW,240,2.0,5.0,81,0.00,,,0.00,Wunderground v.1.15,2013-11-27 19:33:00,
2013-11-27 14:38:00,28.3,23.2,29.86,NE,55,2.0,8.0,81,0.00,,,0.00,Wunderground v.1.15,2013-11-27 19:38:00,
2013-11-27 14:43:00,28.4,23.9,29.86,SE,132,2.0,3.0,83,0.00,,,0.00,Wunderground v.1.15,2013-11-27 19:43:00,
2013-11-27 14:49:00,28.3,23.8,29.87,NE,49,1.0,5.0,83,0.00,,,0.00,Wunderground v.1.15,2013-11-27 19:49:00,
2013-11-27 14:54:00,28.2,23.4,29.87,SSW,211,2.0,6.0,82,0.00,,,0.00,Wunderground v.1.15,2013-11-27 19:54:00,
2013-11-27 14:59:00,28.1,23.3,29.87,SE,128,2.0,7.0,82,0.00,,,0.00,Wunderground v.1.15,2013-11-27 19:59:00,
2013-11-27 15:04:00,28.1,23.3,29.88,East,92,1.0,2.0,82,0.00,,,0.00,Wunderground v.1.15,2013-11-27 20:04:00,
2013-11-27 15:10:00,28.1,23.6,29.89,WSW,240,1.0,3.0,83,0.00,,,0.00,Wunderground v.1.15,2013-11-27 20:10:00,
2013-11-27 15:15:00,28.1,23.3,29.89,SSE,163,1.0,4.0,82,0.00,,,0.00,Wunderground v.1.15,2013-11-27 20:15:00,
2013-11-27 15:20:00,28.0,22.6,29.89,ESE,122,2.0,2.0,80,0.00,,,0.00,Wunderground v.1.15,2013-11-27 20:20:00,
2013-11-27 15:25:00,28.0,22.9,29.90,SSE,152,2.0,4.0,81,0.00,,,0.00,Wunderground v.1.15,2013-11-27 20:25:00,
2013-11-27 15:30:00,28.0,22.9,29.90,South,185,2.0,8.0,81,0.00,,,0.00,Wunderground v.1.15,2013-11-27 20:30:00,
2013-11-27 15:35:00,27.8,22.7,29.90,ENE,78,2.0,8.0,81,0.00,,,0.00,Wunderground v.1.15,2013-11-27 20:35:00,
2013-11-27 15:40:00,27.7,22.6,29.91,South,190,2.0,2.0,81,0.00,,,0.00,Wunderground v.1.15,2013-11-27 20:40:00,
2013-11-27 15:46:00,27.7,22.6,29.91,SSE,150,1.0,3.0,81,0.00,,,0.00,Wunderground v.1.15,2013-11-27 20:46:00,
2013-11-27 15:51:00,27.6,22.8,29.92,SSW,194,1.0,1.0,82,0.00,,,0.00,Wunderground v.1.15,2013-11-27 20:51:00,
2013-11-27 15:57:00,27.5,22.7,29.92,SE,128,1.0,2.0,82,0.00,,,0.00,Wunderground v.1.15,2013-11-27 20:57:00,
2013-11-27 16:02:00,27.4,22.3,29.92,North,11,2.0,2.0,81,0.00,,,0.00,Wunderground v.1.15,2013-11-27 21:02:00,
2013-11-27 16:07:00,27.3,22.5,29.93,SE,127,2.0,2.0,82,0.00,,,0.00,Wunderground v.1.15,2013-11-27 21:07:00,
2013-11-27 16:12:00,27.3,21.9,29.93,ESE,115,1.0,1.0,80,0.00,,,0.00,Wunderground v.1.15,2013-11-27 21:12:00,
2013-11-27 16:18:00,27.3,22.5,29.94,ESE,117,1.0,6.0,82,0.00,,,0.00,Wunderground v.1.15,2013-11-27 21:18:00,
2013-11-27 16:23:00,27.2,21.8,29.94,WSW,257,1.0,2.0,80,0.00,,,0.00,Wunderground v.1.15,2013-11-27 21:23:00,
2013-11-27 16:28:00,27.1,21.5,29.94,ENE,65,2.0,3.0,79,0.00,,,0.00,Wunderground v.1.15,2013-11-27 21:28:00,
2013-11-27 16:33:00,27.0,21.4,29.94,SE,131,2.0,2.0,79,0.00,,,0.00,Wunderground v.1.15,2013-11-27 21:33:00,
2013-11-27 16:39:00,26.9,21.3,29.95,ENE,71,1.0,7.0,79,0.00,,,0.00,Wunderground v.1.15,2013-11-27 21:39:00,
2013-11-27 16:44:00,26.9,21.0,29.95,South,190,1.0,2.0,78,0.00,,,0.00,Wunderground v.1.15,2013-11-27 21:44:00,
2013-11-27 16:49:00,26.8,20.6,29.95,NE,55,2.0,5.0,77,0.00,,,0.00,Wunderground v.1.15,2013-11-27 21:49:00,
2013-11-27 16:54:00,26.7,20.8,29.96,SSE,163,2.0,3.0,78,0.00,,,0.00,Wunderground v.1.15,2013-11-27 21:54:00,
2013-11-27 17:00:00,26.6,20.4,29.96,WNW,286,2.0,2.0,77,0.00,,,0.00,Wunderground v.1.15,2013-11-27 22:00:00,
2013-11-27 17:06:00,26.5,20.3,29.97,South,182,2.0,4.0,77,0.00,,,0.00,Wunderground v.1.15,2013-11-27 22:06:00,
2013-11-27 17:11:00,26.5,20.6,29.97,SSE,159,1.0,2.0,78,0.00,,,0.00,Wunderground v.1.15,2013-11-27 22:11:00,
2013-11-27 17:16:00,26.4,20.2,29.97,ENE,70,2.0,8.0,77,0.00,,,0.00,Wunderground v.1.15,2013-11-27 22:16:00,
2013-11-27 17:21:00,26.4,20.2,29.97,SE,132,2.0,2.0,77,0.00,,,0.00,Wunderground v.1.15,2013-11-27 22:21:00,
2013-11-27 17:27:00,26.3,19.8,29.97,SE,140,2.0,4.0,76,0.00,,,0.00,Wunderground v.1.15,2013-11-27 22:27:00,
2013-11-27 17:32:00,26.2,19.7,29.97,South,181,1.0,3.0,76,0.00,,,0.00,Wunderground v.1.15,2013-11-27 22:32:00,
2013-11-27 17:37:00,26.2,20.0,29.98,ENE,67,1.0,3.0,77,0.00,,,0.00,Wunderground v.1.15,2013-11-27 22:37:00,
2013-11-27 17:43:00,26.1,20.5,29.99,NE,55,1.0,4.0,79,0.00,,,0.00,Wunderground v.1.15,2013-11-27 22:43:00,
2013-11-27 17:48:00,26.0,19.5,29.99,SSE,157,2.0,4.0,76,0.00,,,0.00,Wunderground v.1.15,2013-11-27 22:48:00,
2013-11-27 17:53:00,25.8,18.3,29.99,South,173,3.0,5.0,73,0.00,,,0.00,Wunderground v.1.15,2013-11-27 22:53:00,
2013-11-27 17:58:00,25.7,18.9,30.00,South,170,3.0,5.0,75,0.00,,,0.00,Wunderground v.1.15,2013-11-27 22:58:00,
2013-11-27 18:04:00,25.5,19.3,30.00,ESE,118,1.0,2.0,77,0.00,,,0.00,Wunderground v.1.15,2013-11-27 23:04:00,
2013-11-27 18:09:00,25.3,19.4,30.00,SSW,192,1.0,2.0,78,0.00,,,0.00,Wunderground v.1.15,2013-11-27 23:09:00,
2013-11-27 18:14:00,25.2,19.9,30.00,SE,144,1.0,3.0,80,0.00,,,0.00,Wunderground v.1.15,2013-11-27 23:14:00,
2013-11-27 18:19:00,25.1,18.9,30.00,ESE,105,1.0,3.0,77,0.00,,,0.00,Wunderground v.1.15,2013-11-27 23:19:00,
2013-11-27 18:25:00,25.1,19.2,30.00,SSE,151,1.0,3.0,78,0.00,,,0.00,Wunderground v.1.15,2013-11-27 23:25:00,
2013-11-27 18:30:00,25.0,18.8,30.00,South,175,2.0,3.0,77,0.00,,,0.00,Wunderground v.1.15,2013-11-27 23:30:00,
2013-11-27 18:35:00,25.1,19.5,30.01,South,186,2.0,3.0,79,0.00,,,0.00,Wunderground v.1.15,2013-11-27 23:35:00,
2013-11-27 18:40:00,25.1,18.9,30.01,South,183,2.0,3.0,77,0.00,,,0.00,Wunderground v.1.15,2013-11-27 23:40:00,
2013-11-27 18:45:00,25.1,18.9,30.01,SSW,203,2.0,3.0,77,0.00,,,0.00,Wunderground v.1.15,2013-11-27 23:45:00,
2013-11-27 18:51:00,25.1,18.6,30.02,SSE,151,2.0,3.0,76,0.00,,,0.00,Wunderground v.1.15,2013-11-27 23:51:00,
2013-11-27 18:56:00,25.1,19.2,30.02,South,183,2.0,3.0,78,0.00,,,0.00,Wunderground v.1.15,2013-11-27 23:56:00,
2013-11-27 19:01:00,25.1,18.9,30.02,South,189,2.0,4.0,77,0.00,,,0.00,Wunderground v.1.15,2013-11-28 00:01:00,
2013-11-27 19:07:00,25.1,19.2,30.02,SW,221,2.0,4.0,78,0.00,,,0.00,Wunderground v.1.15,2013-11-28 00:07:00,
2013-11-27 19:12:00,25.0,19.1,30.02,SW,234,2.0,3.0,78,0.00,,,0.00,Wunderground v.1.15,2013-11-28 00:12:00,
2013-11-27 19:17:00,25.0,19.1,30.03,SSW,196,2.0,3.0,78,0.00,,,0.00,Wunderground v.1.15,2013-11-28 00:17:00,
2013-11-27 19:22:00,25.0,19.4,30.03,SE,141,2.0,3.0,79,0.00,,,0.00,Wunderground v.1.15,2013-11-28 00:22:00,
2013-11-27 19:28:00,24.9,19.3,30.03,South,182,2.0,3.0,79,0.00,,,0.00,Wunderground v.1.15,2013-11-28 00:28:00,
2013-11-27 19:33:00,24.9,19.6,30.04,South,175,2.0,4.0,80,0.00,,,0.00,Wunderground v.1.15,2013-11-28 00:33:00,
2013-11-27 19:38:00,24.8,19.8,30.04,South,183,1.0,4.0,81,0.00,,,0.00,Wunderground v.1.15,2013-11-28 00:38:00,
2013-11-27 19:43:00,24.8,19.8,30.04,SSE,167,1.0,3.0,81,0.00,,,0.00,Wunderground v.1.15,2013-11-28 00:43:00,
2013-11-27 19:48:00,24.8,19.5,30.04,East,83,1.0,3.0,80,0.00,,,0.00,Wunderground v.1.15,2013-11-28 00:48:00,
2013-11-27 19:54:00,24.8,19.5,30.04,South,173,2.0,2.0,80,0.00,,,0.00,Wunderground v.1.15,2013-11-28 00:54:00,
2013-11-27 19:59:00,24.8,19.5,30.05,SE,129,1.0,5.0,80,0.00,,,0.00,Wunderground v.1.15,2013-11-28 00:59:00,
2013-11-27 20:05:00,24.8,19.2,30.05,WSW,247,1.0,1.0,79,0.00,,,0.00,Wunderground v.1.15,2013-11-28 01:05:00,
2013-11-27 20:10:00,24.7,19.4,30.05,East,94,1.0,1.0,80,0.00,,,0.00,Wunderground v.1.15,2013-11-28 01:10:00,
2013-11-27 20:15:00,24.7,19.1,30.05,SSE,152,1.0,3.0,79,0.00,,,0.00,Wunderground v.1.15,2013-11-28 01:15:00,
2013-11-27 20:20:00,24.7,19.4,30.06,SW,227,1.0,1.0,80,0.00,,,0.00,Wunderground v.1.15,2013-11-28 01:20:00,
2013-11-27 20:26:00,24.7,19.4,30.06,SE,140,2.0,2.0,80,0.00,,,0.00,Wunderground v.1.15,2013-11-28 01:26:00,
2013-11-27 20:31:00,24.7,19.1,30.06,SE,125,2.0,2.0,79,0.00,,,0.00,Wunderground v.1.15,2013-11-28 01:31:00,
2013-11-27 20:37:00,24.7,19.4,30.06,SE,142,1.0,3.0,80,0.00,,,0.00,Wunderground v.1.15,2013-11-28 01:37:00,
2013-11-27 20:42:00,24.7,19.4,30.06,South,184,1.0,2.0,80,0.00,,,0.00,Wunderground v.1.15,2013-11-28 01:42:00,
2013-11-27 20:47:00,24.7,19.7,30.06,East,86,1.0,2.0,81,0.00,,,0.00,Wunderground v.1.15,2013-11-28 01:47:00,
2013-11-27 20:53:00,24.7,19.4,30.07,ENE,71,1.0,2.0,80,0.00,,,0.00,Wunderground v.1.15,2013-11-28 01:53:00,
2013-11-27 20:58:00,24.7,19.4,30.07,East,92,1.0,2.0,80,0.00,,,0.00,Wunderground v.1.15,2013-11-28 01:58:00,
2013-11-27 21:04:00,24.6,19.3,30.07,SSE,150,1.0,2.0,80,0.00,,,0.00,Wunderground v.1.15,2013-11-28 02:04:00,
2013-11-27 21:09:00,24.6,19.0,30.07,SE,145,2.0,4.0,79,0.00,,,0.00,Wunderground v.1.15,2013-11-28 02:09:00,
2013-11-27 21:14:00,24.6,19.3,30.07,South,184,2.0,2.0,80,0.00,,,0.00,Wunderground v.1.15,2013-11-28 02:14:00,
2013-11-27 21:19:00,24.6,19.3,30.08,NNE,13,1.0,2.0,80,0.00,,,0.00,Wunderground v.1.15,2013-11-28 02:19:00,
2013-11-27 21:24:00,24.5,19.2,30.08,South,172,2.0,3.0,80,0.00,,,0.00,Wunderground v.1.15,2013-11-28 02:24:00,
2013-11-27 21:30:00,24.5,19.2,30.08,South,171,1.0,1.0,80,0.00,,,0.00,Wunderground v.1.15,2013-11-28 02:30:00,
2013-11-27 21:35:00,24.5,19.2,30.08,SE,132,2.0,2.0,80,0.00,,,0.00,Wunderground v.1.15,2013-11-28 02:35:00,
2013-11-27 21:40:00,24.6,19.6,30.09,SSE,152,1.0,2.0,81,0.00,,,0.00,Wunderground v.1.15,2013-11-28 02:40:00,
2013-11-27 21:46:00,24.5,19.5,30.09,SE,134,1.0,5.0,81,0.00,,,0.00,Wunderground v.1.15,2013-11-28 02:46:00,
2013-11-27 21:51:00,24.5,19.8,30.09,ESE,102,1.0,3.0,82,0.00,,,0.00,Wunderground v.1.15,2013-11-28 02:51:00,
2013-11-27 21:57:00,24.4,20.0,30.10,South,172,1.0,3.0,83,0.00,,,0.00,Wunderground v.1.15,2013-11-28 02:57:00,
2013-11-27 22:02:00,24.3,20.2,30.10,ENE,60,1.0,1.0,84,0.00,,,0.00,Wunderground v.1.15,2013-11-28 03:02:00,
2013-11-27 22:07:00,24.3,20.4,30.10,South,173,1.0,1.0,85,0.00,,,0.00,Wunderground v.1.15,2013-11-28 03:07:00,
2013-11-27 22:13:00,24.2,20.3,30.10,SE,124,0.0,3.0,85,0.00,,,0.00,Wunderground v.1.15,2013-11-28 03:13:00,
2013-11-27 22:18:00,24.1,20.5,30.11,SE,138,1.0,3.0,86,0.00,,,0.00,Wunderground v.1.15,2013-11-28 03:18:00,
2013-11-27 22:23:00,24.2,20.1,30.11,South,188,1.0,3.0,84,0.00,,,0.00,Wunderground v.1.15,2013-11-28 03:23:00,
2013-11-27 22:29:00,24.2,20.1,30.11,SE,142,1.0,3.0,84,0.00,,,0.00,Wunderground v.1.15,2013-11-28 03:29:00,
2013-11-27 22:34:00,24.2,20.1,30.12,SSE,167,1.0,2.0,84,0.00,,,0.00,Wunderground v.1.15,2013-11-28 03:34:00,
2013-11-27 22:39:00,24.3,20.2,30.12,SSE,161,0.0,2.0,84,0.00,,,0.00,Wunderground v.1.15,2013-11-28 03:39:00,
2013-11-27 22:44:00,24.3,19.9,30.13,East,92,1.0,5.0,83,0.00,,,0.00,Wunderground v.1.15,2013-11-28 03:44:00,
2013-11-27 22:50:00,24.2,19.8,30.13,SE,138,1.0,1.0,83,0.00,,,0.00,Wunderground v.1.15,2013-11-28 03:50:00,
2013-11-27 22:55:00,24.3,19.9,30.13,SSE,163,1.0,3.0,83,0.00,,,0.00,Wunderground v.1.15,2013-11-28 03:55:00,
2013-11-27 23:00:00,24.3,20.2,30.13,SSE,163,1.0,1.0,84,0.00,,,0.00,Wunderground v.1.15,2013-11-28 04:00:00,
2013-11-27 23:06:00,24.3,20.2,30.14,SSE,163,0.0,1.0,84,0.00,,,0.00,Wunderground v.1.15,2013-11-28 04:06:00,
2013-11-27 23:11:00,24.3,20.2,30.14,SE,141,1.0,3.0,84,0.00,,,0.00,Wunderground v.1.15,2013-11-28 04:11:00,
2013-11-27 23:16:00,24.3,20.2,30.14,East,88,1.0,3.0,84,0.00,,,0.00,Wunderground v.1.15,2013-11-28 04:16:00,
2013-11-27 23:22:00,24.3,20.2,30.15,SSW,194,1.0,2.0,84,0.00,,,0.00,Wunderground v.1.15,2013-11-28 04:22:00,
2013-11-27 23:27:00,24.2,20.3,30.15,West,277,2.0,9.0,85,0.00,,,0.00,Wunderground v.1.15,2013-11-28 04:27:00,
2013-11-27 23:32:00,24.2,20.3,30.15,ENE,63,1.0,1.0,85,0.00,,,0.00,Wunderground v.1.15,2013-11-28 04:32:00,
2013-11-27 23:37:00,24.2,20.6,30.16,East,101,0.0,1.0,86,0.00,,,0.00,Wunderground v.1.15,2013-11-28 04:37:00,
2013-11-27 23:42:00,24.1,20.5,30.16,ESE,117,1.0,1.0,86,0.00,,,0.00,Wunderground v.1.15,2013-11-28 04:42:00,
2013-11-27 23:47:00,24.1,20.5,30.16,ESE,119,1.0,1.0,86,0.00,,,0.00,Wunderground v.1.15,2013-11-28 04:47:00,
2013-11-27 23:52:00,24.1,20.5,30.16,SE,124,0.0,1.0,86,0.00,,,0.00,Wunderground v.1.15,2013-11-28 04:52:00,
2013-11-27 23:58:00,24.1,19.7,30.16,SSW,199,1.0,4.0,83,0.00,,,0.00,Wunderground v.1.15,2013-11-28 04:58:00,